FW7990 Weather Reports


time (UTC)temp
F
wind
direction
speed
knots
gust
knots
rain 1hr
in
rain 24hr
in
rain mn
in
humidity
%
barometer
mb
20260505202030 64 333 9.6 18.2 0.00 0.00 0.00 66 1010.2
20260505201539 63 309 10.4 19.1 0.00 0.00 0.00 67 1010.2
20260505201030 63 292 12.2 19.1 0.00 0.00 0.00 66 1010.2
20260505200530 63 286 9.6 15.6 0.00 0.00 0.00 66 1010.4
20260505200058 62 315 10.4 20.0 0.00 0.00 0.00 66 1010.6
20260505195530 62 321 10.4 20.0 0.00 0.00 0.00 66 1010.5
20260505195030 63 323 10.4 20.0 0.00 0.00 0.00 66 1010.5
20260505194548 63 287 9.6 14.8 0.00 0.00 0.00 66 1010.7
20260505194031 62 333 7.8 18.2 0.00 0.00 0.00 66 1010.7
20260505193530 62 345 11.3 18.2 0.00 0.00 0.00 66 1010.7
20260505193048 61 345 9.6 15.6 0.00 0.00 0.00 66 1010.6
20260505192533 61 346 11.3 17.4 0.00 0.00 0.00 66 1010.7
20260505192030 61 342 11.3 17.4 0.00 0.00 0.00 66 1010.7
20260505191541 60 319 6.1 12.2 0.00 0.00 0.00 66 1010.7
20260505191030 60 355 8.7 12.2 0.00 0.00 0.00 66 1010.7
20260505190530 59 302 7.0 15.6 0.00 0.00 0.00 66 1010.7
20260505190039 59 285 8.7 15.6 0.00 0.00 0.00 66 1010.7
20260505185533 59 262 8.7 13.9 0.00 0.00 0.00 66 1010.9
20260505185031 60 262 7.8 13.0 0.00 0.00 0.00 66 1010.8
20260505184544 59 245 1.7 10.4 0.00 0.00 0.00 66 1010.9
20260505184032 59 319 5.2 10.4 0.00 0.00 0.00 66 1010.9
20260505183532 59 297 7.0 10.4 0.00 0.00 0.00 66 1010.9
20260505183042 59 245 3.5 13.0 0.00 0.00 0.00 66 1010.9
20260505182533 59 284 6.1 13.0 0.00 0.00 0.00 66 1011.0
20260505182032 58 294 5.2 13.0 0.00 0.00 0.00 66 1010.9
20260505181542 58 261 5.2 10.4 0.00 0.00 0.00 66 1010.9
20260505181035 58 275 4.3 10.4 0.00 0.00 0.00 66 1010.9
20260505180533 59 312 2.6 7.8 0.00 0.00 0.00 66 1010.8
20260505175532 59 108 2.6 7.8 0.00 0.00 0.00 66 1010.8
20260505175034 59 166 3.5 7.0 0.00 0.00 0.00 66 1010.8
20260505174555 58 77 0.9 7.0 0.00 0.00 0.00 66 1011.0
20260505174032 57 0 1.7 7.0 0.00 0.00 0.00 66 1010.9
20260505173531 57 19 3.5 7.0 0.00 0.00 0.00 66 1011.0
20260505173043 56 102 2.6 5.2 0.00 0.00 0.00 66 1010.9
20260505172534 56 123 1.7 3.5 0.00 0.00 0.00 66 1010.9
20260505172028 56 0 0.9 3.5 0.00 0.00 0.00 66 1011.1
20260505171535 56 125 0.9 5.2 0.00 0.00 0.00 66 1011.0
20260505171035 55 126 1.7 5.2 0.00 0.00 0.00 66 1010.9
20260505170533 54 115 0.0 6.1 0.00 0.00 0.00 65 1011.1
20260505170043 54 115 1.7 6.1 0.00 0.00 0.00 66 1011.1
20260505165533 53 116 0.9 2.6 0.00 0.00 0.00 65 1011.0
20260505165033 52 126 0.0 3.5 0.00 0.00 0.00 65 1011.0
20260505164545 52 126 0.9 3.5 0.00 0.00 0.00 65 1011.1
20260505164032 52 126 1.7 4.3 0.00 0.00 0.00 65 1011.0
20260505163532 52 127 0.9 4.3 0.00 0.00 0.00 65 1011.1
20260505163044 52 133 1.7 4.3 0.00 0.00 0.00 65 1011.1
20260505162532 52 126 0.9 5.2 0.00 0.00 0.00 65 1011.1
20260505162029 51 150 1.7 5.2 0.00 0.00 0.00 65 1011.1
20260505161545 51 0 0.0 4.3 0.00 0.00 0.00 65 1011.2
20260505161032 50 147 0.9 4.3 0.00 0.00 0.00 65 1011.1
20260505160529 49 0 1.7 5.2 0.00 0.00 0.00 65 1011.2
20260505153049 46 158 0.9 5.2 0.00 0.00 0.00 65 1011.2
20260505152535 46 165 1.7 5.2 0.00 0.00 0.00 65 1011.3
20260505152032 46 167 2.6 4.3 0.00 0.00 0.00 65 1011.3
20260505151548 45 0 0.9 4.3 0.00 0.00 0.00 65 1011.5
20260505151029 44 190 1.7 4.3 0.00 0.00 0.00 65 1011.4
20260505150534 43 192 1.7 4.3 0.00 0.00 0.00 64 1011.7
20260505140530 33 0 0.0 0.0 0.00 0.00 0.00 64 1011.1
20260505125030 28 0 0.0 0.0 0.00 0.00 0.00 63 1010.7
20260505124540 28 0 0.0 0.0 0.00 0.00 0.00 63 1010.6
20260505124035 28 0 0.0 0.0 0.00 0.00 0.00 63 1010.5
20260505123532 28 0 0.0 0.0 0.00 0.00 0.00 63 1010.4
20260505123054 27 0 0.0 0.0 0.00 0.00 0.00 63 1010.2
20260505122529 27 0 0.0 0.0 0.00 0.00 0.00 63 1010.2
20260505122035 27 0 0.0 0.0 0.00 0.00 0.00 63 1010.2
20260505121543 28 0 0.0 0.0 0.00 0.00 0.00 63 1010.2
20260505121029 28 0 0.0 0.0 0.00 0.00 0.00 63 1010.2
20260505120529 28 0 0.0 0.0 0.00 0.00 0.00 63 1010.2
20260505120044 28 0 0.0 0.0 0.00 0.00 0.00 63 1010.4
20260505115528 29 0 0.0 0.0 0.00 0.00 0.00 63 1010.1
20260505115035 29 0 0.0 0.0 0.00 0.00 0.00 63 1010.2
20260505114542 29 0 0.0 0.0 0.00 0.00 0.00 63 1010.2
20260505114028 29 0 0.0 0.0 0.00 0.00 0.00 63 1010.3
20260505113530 29 0 0.0 0.0 0.00 0.00 0.00 63 1010.2
20260505113041 29 0 0.0 0.0 0.00 0.00 0.00 63 1010.1
20260505112530 29 0 0.0 0.0 0.00 0.00 0.00 63 1010.2
20260505112029 30 0 0.0 0.0 0.00 0.00 0.00 63 1010.1
20260505111545 30 0 0.0 0.0 0.00 0.00 0.00 63 1010.2
20260505111029 29 0 0.0 0.0 0.00 0.00 0.00 63 1010.1
20260505110528 29 0 0.0 0.0 0.00 0.00 0.00 63 1010.2
20260505102028 31 0 0.0 0.0 0.00 0.00 0.00 64 1010.1
20260505101541 31 0 0.0 0.0 0.00 0.00 0.00 64 1010.0
20260505101029 31 0 0.0 0.0 0.00 0.00 0.00 64 1010.1
20260505100529 31 0 0.0 0.0 0.00 0.00 0.00 64 1010.1
20260505100038 31 0 0.0 1.7 0.00 0.00 0.00 64 1010.1
20260505095528 31 0 0.0 1.7 0.00 0.00 0.00 64 1010.0
20260505095031 31 0 0.0 1.7 0.00 0.00 0.00 64 1010.0
20260505094537 32 217 0.0 2.6 0.00 0.00 0.00 63 1010.2
20260505094029 32 0 0.0 3.5 0.00 0.00 0.00 63 1010.0
20260505093529 31 217 1.7 3.5 0.00 0.00 0.00 64 1010.0
20260505093046 31 217 2.6 3.5 0.00 0.00 0.00 64 1010.0
20260505092529 32 217 0.9 2.6 0.00 0.00 0.00 64 1009.9
20260505092032 32 0 0.0 0.0 0.00 0.00 0.00 64 1009.8
20260505091559 33 0 0.0 0.0 0.00 0.00 0.00 64 1009.8
20260505091028 33 0 0.0 0.0 0.00 0.00 0.00 64 1009.9
20260505090531 34 0 0.0 0.0 0.00 0.00 0.00 64 1009.8
20260505090044 34 0 0.0 0.0 0.00 0.00 0.00 64 1009.7
20260505085532 34 0 0.0 0.0 0.00 0.00 0.00 64 1009.8
20260505085030 34 0 0.0 0.0 0.00 0.00 0.00 64 1009.8
20260505084538 35 0 0.0 0.0 0.00 0.00 0.00 64 1009.7
20260505084031 35 0 0.0 0.0 0.00 0.00 0.00 64 1009.7
20260505083528 35 0 0.0 0.0 0.00 0.00 0.00 64 1009.7
20260505083036 35 0 0.0 0.0 0.00 0.00 0.00 64 1009.8
20260505082529 35 0 0.0 0.0 0.00 0.00 0.00 64 1009.9
20260505082029 35 0 0.0 1.7 0.00 0.00 0.00 64 1009.9
20260505081555 36 0 0.0 2.6 0.00 0.00 0.00 64 1010.0
20260505081029 36 217 0.9 2.6 0.00 0.00 0.00 64 1010.0
20260505080529 36 0 0.0 2.6 0.00 0.00 0.00 64 1010.0
20260505080046 36 0 0.9 3.5 0.00 0.00 0.00 64 1010.0
20260505075528 36 217 1.7 3.5 0.00 0.00 0.00 64 1010.0
20260505075028 36 217 1.7 3.5 0.00 0.00 0.00 64 1010.0
20260505074542 36 219 2.6 3.5 0.00 0.00 0.00 64 1010.0
20260505074028 36 219 2.6 3.5 0.00 0.00 0.00 64 1010.0
20260505073529 37 0 0.0 2.6 0.00 0.00 0.00 64 1010.0
20260505073046 37 0 0.0 2.6 0.00 0.00 0.00 64 1010.1
20260505072533 38 0 0.0 0.0 0.00 0.00 0.00 64 1010.0
20260505072029 38 0 0.0 0.0 0.00 0.00 0.00 64 1010.0
20260505071550 38 0 0.0 0.0 0.00 0.00 0.00 64 1010.1
20260505071029 39 0 0.0 0.0 0.00 0.00 0.00 64 1010.1
20260505070532 39 0 0.0 1.7 0.00 0.00 0.00 64 1010.0
20260505070046 39 0 0.0 1.7 0.00 0.00 0.00 64 1010.0
20260505065529 40 0 0.0 1.7 0.00 0.00 0.00 64 1010.1
20260505065028 40 0 0.0 1.7 0.00 0.00 0.00 64 1010.1
20260505064535 40 221 0.0 2.6 0.00 0.00 0.00 64 1010.1
20260505064028 41 0 0.0 2.6 0.00 0.00 0.00 64 1010.2
20260505063531 41 0 0.0 0.0 0.00 0.00 0.00 64 1010.1
20260505063100 41 0 0.0 0.0 0.00 0.00 0.00 64 1010.0
20260505062528 41 0 0.0 0.0 0.00 0.00 0.00 64 1010.0
20260505062029 42 0 0.0 2.6 0.00 0.00 0.00 64 1010.0
20260505061606 42 0 0.0 2.6 0.00 0.00 0.00 64 1010.0
20260505061031 42 221 0.9 1.7 0.00 0.00 0.00 64 1009.9
20260505060533 43 0 0.0 2.6 0.00 0.00 0.00 64 1009.9
20260505060055 43 0 0.0 4.3 0.00 0.00 0.00 65 1009.8
20260505055529 43 0 0.9 4.3 0.00 0.00 0.00 64 1009.9
20260505055033 42 221 1.7 4.3 0.00 0.00 0.00 64 1009.8
20260505054541 42 0 0.0 4.3 0.00 0.00 0.00 64 1009.9
20260505054028 42 177 2.6 4.3 0.00 0.00 0.00 65 1009.8
20260505053528 44 176 0.9 3.5 0.00 0.00 0.00 65 1009.8
20260505053046 45 175 0.0 3.5 0.00 0.00 0.00 65 1009.8
20260505052531 45 0 0.0 2.6 0.00 0.00 0.00 65 1010.0
20260505052028 45 176 0.0 2.6 0.00 0.00 0.00 65 1009.9
20260505051556 46 176 0.0 2.6 0.00 0.00 0.00 65 1010.0
20260505051033 47 0 0.0 2.6 0.00 0.00 0.00 65 1010.0
20260505050531 48 0 0.9 2.6 0.00 0.00 0.00 65 1010.0
20260505041537 51 0 0.0 1.7 0.00 0.00 0.00 65 1009.8
20260505041030 52 0 0.0 4.3 0.00 0.00 0.00 65 1009.8
20260505040530 53 0 0.0 5.2 0.00 0.00 0.00 65 1009.7
20260505040039 53 176 2.6 5.2 0.00 0.00 0.00 66 1009.6
20260505035529 54 171 2.6 7.0 0.00 0.00 0.00 65 1009.5
20260505035029 55 154 2.6 7.0 0.00 0.00 0.00 66 1009.5
20260505034543 55 162 0.9 6.1 0.00 0.00 0.00 66 1009.4
20260505034029 55 161 1.7 9.6 0.00 0.00 0.00 66 1009.4
20260505033533 56 160 4.3 9.6 0.00 0.00 0.00 66 1009.2
20260505033037 56 157 2.6 9.6 0.00 0.00 0.00 66 1009.1
20260505032529 57 151 1.7 4.3 0.00 0.00 0.00 66 1009.1
20260505032029 57 147 2.6 8.7 0.00 0.00 0.00 66 1008.9
20260505031539 58 144 2.6 9.6 0.00 0.00 0.00 66 1008.9
20260505031029 58 174 4.3 9.6 0.00 0.00 0.00 66 1008.7
20260505030529 58 175 4.3 8.7 0.00 0.00 0.00 66 1008.7
20260505030037 58 180 4.3 8.7 0.00 0.00 0.00 66 1008.6
20260505025530 58 175 0.9 5.2 0.00 0.00 0.00 66 1008.6
20260505025028 58 180 2.6 7.8 0.00 0.00 0.00 66 1008.6
20260505024548 58 190 4.3 9.6 0.00 0.00 0.00 66 1008.5
20260505024029 59 175 5.2 17.4 0.00 0.00 0.00 66 1008.3
20260505023529 59 168 7.8 17.4 0.00 0.00 0.00 66 1008.2
20260505023041 60 135 7.0 12.2 0.00 0.00 0.00 66 1007.9
20260505022531 61 191 4.3 12.2 0.00 0.00 0.00 66 1007.8
20260505022029 61 159 4.3 10.4 0.00 0.00 0.00 66 1007.8
20260505021537 62 169 1.7 7.8 0.00 0.00 0.00 66 1007.8
20260505021029 63 103 0.9 7.8 0.00 0.00 0.00 66 1007.6
20260505020529 63 100 2.6 7.8 0.00 0.00 0.00 67 1007.7
20260505020037 64 22 0.9 10.4 0.00 0.00 0.00 66 1007.6
20260505015530 64 0 3.5 13.9 0.00 0.00 0.00 66 1007.6
20260505015029 64 33 8.7 13.9 0.00 0.00 0.00 66 1007.5
20260505014537 64 18 8.7 12.2 0.00 0.00 0.00 66 1007.5
20260505014031 64 12 7.0 10.4 0.00 0.00 0.00 66 1007.6
20260505013529 64 9 6.1 11.3 0.00 0.00 0.00 67 1007.5
20260505013042 64 342 4.3 11.3 0.00 0.00 0.00 66 1007.6
20260505012529 64 344 7.0 12.2 0.00 0.00 0.00 66 1007.6
20260505012031 64 346 7.0 12.2 0.00 0.00 0.00 67 1007.7
20260505011541 64 5 8.7 13.0 0.00 0.00 0.00 67 1007.6
20260505011029 63 350 7.8 13.0 0.00 0.00 0.00 67 1007.7
20260505010529 63 348 7.8 12.2 0.00 0.00 0.00 67 1007.6
20260505010038 63 13 5.2 10.4 0.00 0.00 0.00 66 1007.7
20260505005529 63 360 5.2 10.4 0.00 0.00 0.00 66 1007.6
20260505005029 63 304 4.3 12.2 0.00 0.00 0.00 66 1007.6
20260505004536 63 277 7.0 12.2 0.00 0.00 0.00 66 1007.8
20260505004028 63 284 5.2 15.6 0.00 0.00 0.00 67 1007.8
20260505003528 64 294 7.0 15.6 0.00 0.00 0.00 66 1007.8
20260505003043 65 286 10.4 15.6 0.00 0.00 0.00 66 1007.7
20260505002528 65 328 10.4 15.6 0.00 0.00 0.00 66 1007.6
20260505002029 65 324 9.6 15.6 0.00 0.00 0.00 67 1007.6
20260505001535 65 304 8.7 13.9 0.00 0.00 0.00 66 1007.7
20260505001029 65 342 9.6 16.5 0.00 0.00 0.00 67 1007.7
20260505000530 65 313 9.6 18.2 0.00 0.00 0.00 67 1007.8
20260505000046 65 306 12.2 18.2 0.00 0.00 0.00 67 1007.8
20260504235529 65 290 9.6 17.4 0.00 0.00 0.00 67 1007.9
20260504235031 65 325 12.2 16.5 0.00 0.00 0.00 67 1007.8
20260504234539 66 355 9.6 14.8 0.00 0.00 0.00 67 1007.9
20260504234029 67 5 10.4 13.9 0.00 0.00 0.00 67 1007.9
20260504233531 68 351 7.8 17.4 0.00 0.00 0.00 67 1008.0
20260504233042 69 355 11.3 17.4 0.00 0.00 0.00 67 1008.0
20260504232529 69 325 11.3 15.6 0.00 0.00 0.00 67 1007.9
20260504232029 69 360 7.8 13.9 0.00 0.00 0.00 67 1007.9
20260504231546 69 346 7.8 12.2 0.00 0.00 0.00 67 1008.0
20260504231028 69 355 5.2 12.2 0.00 0.00 0.00 67 1008.0
20260504230528 69 313 7.8 12.2 0.00 0.00 0.00 67 1008.1
20260504230053 69 321 7.0 11.3 0.00 0.00 0.00 67 1008.0
20260504225529 69 305 5.2 10.4 0.00 0.00 0.00 67 1008.1
20260504225032 68 231 2.6 7.8 0.00 0.00 0.00 67 1008.2
20260504224542 68 241 2.6 7.8 0.00 0.00 0.00 67 1008.2
20260504224029 67 54 1.7 4.3 0.00 0.00 0.00 67 1008.3
20260504223530 65 0 0.0 3.5 0.00 0.00 0.00 66 1008.5
20260504223047 65 0 0.0 11.3 0.00 0.00 0.00 67 1008.6
20260504222528 65 0 0.9 11.3 0.00 0.00 0.00 67 1008.6
20260504222029 65 103 6.1 13.9 0.00 0.00 0.00 67 1008.7
20260504221535 65 71 6.1 13.9 0.00 0.00 0.00 67 1008.8
20260504221029 65 103 6.1 13.9 0.00 0.00 0.00 67 1008.9
20260504220529 65 63 7.0 14.8 0.00 0.00 0.00 67 1009.0
20260504220038 65 52 7.8 14.8 0.00 0.00 0.00 67 1009.0
20260504215529 64 38 7.0 17.4 0.00 0.00 0.00 66 1009.0
20260504215028 63 61 8.7 22.6 0.00 0.00 0.00 66 1009.0
20260504214548 63 69 13.0 22.6 0.00 0.00 0.00 66 1009.0
20260504214032 65 96 7.8 14.8 0.00 0.00 0.00 67 1008.9
20260504213529 65 9 7.8 15.6 0.00 0.00 0.00 67 1009.2
20260504213041 66 5 9.6 15.6 0.00 0.00 0.00 67 1009.0
20260504212529 66 329 8.7 20.0 0.00 0.00 0.00 67 1009.0
20260504212030 67 360 13.9 20.0 0.00 0.00 0.00 67 1009.1
20260504211540 68 355 5.2 14.8 0.00 0.00 0.00 67 1009.0
20260504211029 67 18 9.6 14.8 0.00 0.00 0.00 67 1009.2
20260504210529 67 340 7.0 13.9 0.00 0.00 0.00 67 1009.2
20260504210043 67 295 7.0 12.2 0.00 0.00 0.00 67 1009.1
20260504205529 67 352 7.0 13.9 0.00 0.00 0.00 67 1009.4
20260504205028 66 360 7.8 13.9 0.00 0.00 0.00 67 1009.3
20260504204548 66 45 10.4 14.8 0.00 0.00 0.00 67 1009.4
20260504204031 66 30 10.4 16.5 0.00 0.00 0.00 67 1009.4
20260504203528 66 5 7.8 16.5 0.00 0.00 0.00 67 1009.4
20260504203058 65 339 10.4 15.6 0.00 0.00 0.00 67 1009.4
20260504202530 65 348 10.4 17.4 0.00 0.00 0.00 67 1009.4